Other Surface Observations
Issued by NWS Tucson, AZ

Home | Current Version | Previous Version | Text Only | Print | Product List | Glossary On
Versions: 1 2 3 4 5 6 7 8 9 10 11 12 13 14 15 16 17 18 19 20 21 22 23 24 25 26 27 28 29 30 31 32 33 34 35 36 37 38 39 40 41 42 43 44 45 46 47 48 49 50
000
SXUS55 KTWC 231716
OSOTWC

WEATHER ROUNDUP FOR SOUTHEAST ARIZONA
NATIONAL WEATHER SERVICE TUCSON AZ
1015 AM MST THU OCT 23 2014

AZZ504>506-514-231815-
LOCATION       SKY/WX    TMP DP  RH WIND       PRES   REMARKS
TUCSON         SUNNY     76  48  37 SE3       30.13S
DAVIS-MONTHAN  SUNNY     77  50  39 S2        30.11S
CHILDRENS PARK N/A       67  50  54 SE5               PIMA CO DEQ
ALVERNON/22ND  N/A      N/A N/A N/A N/A               PIMA CO DEQ
CHERRY/GLENN   N/A      N/A N/A N/A N/A               PIMA CO DEQ
TANGERINE      N/A       70 N/A N/A SE6               PIMA CO DEQ
CONTL RANCH    N/A       69  51  52 SE7               PIMA CO DEQ
GRANT/1ST      N/A       69  50  51 SE3               PIMA CO DEQ
CRAYCROFT/22ND N/A      N/A N/A N/A N/A               PIMA CO DEQ
GOLFLINKS/KOLB N/A       71  50  48 S1                PIMA CO DEQ
AJO/12TH       N/A       67  49  53 S8                PIMA CO DEQ
SAGUARO EAST   N/A      N/A N/A N/A N/A               PIMA CO DEQ
FAIRGROUNDS    N/A       70 N/A N/A SE4               PIMA CO DEQ
SAGUARO        N/A       80  53  39 N2                *SABINO CYN
SAN CARLOS     N/A       70  53  55 CALM              *SAN CARLOS
GREEN VALLEY   N/A       69  47  46 S9                PIMA CO DEQ
HORSE CAMP CYN N/A       70  48  45 E11G15            *ARAVAIPA CYN
RINCON MTNS    N/A       59  40  49 E6G11             *NR MANNING CAMP
$$

AZZ509>511-231815-
LOCATION       SKY/WX    TMP DP  RH WIND       PRES   REMARKS
SAFFORD        SUNNY     72  50  45 SE10      30.17S
STRAY HORSE    N/A       62  42  48 SE4               *
TRAIL CABIN    N/A       63  46  54 NE6               *N OF GRANVILLE
BLACK HILLS    N/A       70  51  51 NW2               *N OF FT THOMAS
DRY LAKE       N/A       64  47  54 SE4               *NATANES MTNS
NOON CREEK     N/A       73  49  43 NE3               *PINALENO MTNS
COLUMBINE      N/A       48  37  66 S3                *PINALENO MTNS
GUTHRIE        N/A       65  48  55 E3G10             *SW OF GUTHRIE
$$

AZZ502-503-513-231815-
LOCATION       SKY/WX    TMP DP  RH WIND       PRES   REMARKS
NOGALES        SUNNY     75  47  36 CALM      30.18S
SELLS          N/A       83  52  34 E5                *
SASABE         N/A       74  49  41 S2                *ALTAR VLY
HOPKINS        N/A       64  43  47 E13G17            *SANTA RITA MTNS
CARR CYN       N/A       72  49  45 E3                *W OF HEREFORD
$$

AZZ507-508-512-231815-
LOCATION       SKY/WX    TMP DP  RH WIND       PRES   REMARKS
SIERRA VISTA   MOSUNNY   73  48  40 E8        30.24R
DOUGLAS        SUNNY     72  50  45 CALM      30.22F
EMPIRE MTNS    N/A       75  48  38 SE7G11            *LAS CIENEGAS NCA
MULESHOE RANCH N/A       75  45  34 SE4G10            *PRESERVE
HEADQUARTERS   N/A       72  49  44 E4G11             *CHIRICAHUA MTNS
$$

.............................NOTES.............................
THIS IS AN AUTOMATED COLLECTIVE WITH MINIMAL QUALITY CONTROL.
PIMA CO DEQ SITES HAVE NONSTANDARD WIND SENSOR HEIGHTS.
PIMA CO DEQ SITES DO NOT REPORT WIND GUSTS.
* INDICATES WIND SENSORS LOCATED AT 20 FEET INSTEAD OF 33 FEET.
..............................KEY..............................
SKY/WX - SKY CONDITION/WEATHER
TMP    - TEMPERATURE IN FAHRENHEIT
DP     - DEWPOINT IN FAHRENHEIT
RH     - RELATIVE HUMIDITY IN PERCENT
WIND   - DIRECTION AND SPEED IN MILES PER HOUR (MPH)
VRB    - VARIABLE WIND DIRECTION
PRES   - MEAN SEA LEVEL PRESSURE IN INCHES OF MERCURY
         F - FALLING PRESSURE   R - RISING PRESSURE
         S - STEADY PRESSURE
VSB    - VISIBILITY IN MILES
HX     - HEAT INDEX IN FAHRENHEIT
WCI    - WIND CHILL INDEX IN FAHRENHEIT
N/A    - NOT AVAILABLE
AFB    - AIR FORCE BASE
         DAVIS-MONTHAN IS DAVIS-MONTHAN AIR FORCE BASE
CYN    - CANYON
MTNS   - MOUNTAINS
NCA    - NATIONAL CONSERVATION AREA
NR     - NEAR
VLY    - VALLEY
CONTL  - CONTINENTAL
PIMA CO DEQ - PIMA COUNTY DEPT OF ENVIRONMENTAL QUALITY



USA.gov is the U.S. government's official web portal to all federal, state and local government web resources and services.